| time (UTC) | temp F | wind direction | speed MPH | gust MPH | rain 1hr in | rain 24hr in | rain mn in | humidity % | barometer mb |
| 20260509173657 | 79 | 96 | 4.0 | 6.0 | 0.00 | 0.00 | 0.00 | 93 | 1012.0 |
| 20260509173157 | 80 | 119 | 2.0 | 2.0 | 0.00 | 0.00 | 0.00 | 93 | 1012.0 |
| 20260509172657 | 80 | 132 | 2.0 | 2.0 | 0.00 | 0.00 | 0.00 | 93 | 1012.0 |
| 20260509172158 | 80 | 143 | 3.0 | 3.0 | 0.00 | 0.00 | 0.00 | 92 | 1012.0 |
| 20260509171657 | 80 | 149 | 1.0 | 3.0 | 0.00 | 0.00 | 0.00 | 92 | 1012.0 |
| 20260509171157 | 80 | 111 | 1.0 | 3.0 | 0.00 | 0.00 | 0.00 | 91 | 1012.0 |
| 20260509170658 | 80 | 132 | 0.0 | 0.0 | 0.00 | 0.00 | 0.00 | 91 | 1012.0 |
| 20260509170157 | 81 | 129 | 3.0 | 3.0 | 0.00 | 0.00 | 0.00 | 91 | 1012.0 |
| 20260509165658 | 81 | 146 | 1.0 | 1.0 | 0.00 | 0.00 | 0.00 | 90 | 1013.0 |
| 20260509165158 | 81 | 123 | 2.0 | 3.0 | 0.00 | 0.00 | 0.00 | 90 | 1012.0 |
| 20260509164658 | 81 | 132 | 1.0 | 2.0 | 0.00 | 0.00 | 0.00 | 90 | 1012.0 |
| 20260509164157 | 81 | 128 | 3.0 | 3.0 | 0.00 | 0.00 | 0.00 | 90 | 1012.0 |
| 20260509163657 | 81 | 130 | 0.0 | 0.0 | 0.00 | 0.00 | 0.00 | 90 | 1013.0 |
| 20260509163157 | 81 | 158 | 0.0 | 0.0 | 0.00 | 0.00 | 0.00 | 90 | 1012.0 |
| 20260509162657 | 81 | 158 | 1.0 | 1.0 | 0.00 | 0.00 | 0.00 | 90 | 1012.0 |
| 20260509162157 | 81 | 136 | 0.0 | 1.0 | 0.00 | 0.00 | 0.00 | 90 | 1012.0 |
| 20260509161701 | 81 | 159 | 0.0 | 0.0 | 0.00 | 0.00 | 0.00 | 90 | 1012.0 |
| 20260509161157 | 81 | 142 | 1.0 | 2.0 | 0.00 | 0.00 | 0.00 | 89 | 1013.0 |
| 20260509160657 | 81 | 159 | 1.0 | 1.0 | 0.00 | 0.00 | 0.00 | 90 | 1013.0 |
| 20260509160157 | 81 | 160 | 0.0 | 0.0 | 0.00 | 0.00 | 0.00 | 90 | 1013.0 |
| 20260509155658 | 82 | 139 | 2.0 | 2.0 | 0.00 | 0.00 | 0.00 | 89 | 1013.0 |
| 20260509155159 | 82 | 119 | 2.0 | 2.0 | 0.00 | 0.00 | 0.00 | 89 | 1013.0 |
| 20260509154657 | 82 | 107 | 3.0 | 3.0 | 0.00 | 0.00 | 0.00 | 89 | 1013.0 |
| 20260509154157 | 82 | 140 | 1.0 | 1.0 | 0.00 | 0.00 | 0.00 | 89 | 1013.0 |
| 20260509153657 | 82 | 137 | 0.0 | 0.0 | 0.00 | 0.00 | 0.00 | 89 | 1012.0 |
| 20260509153157 | 82 | 134 | 1.0 | 2.0 | 0.00 | 0.00 | 0.00 | 89 | 1013.0 |
| 20260509152658 | 83 | 163 | 0.0 | 0.0 | 0.00 | 0.00 | 0.00 | 88 | 1013.0 |
| 20260509152157 | 84 | 137 | 2.0 | 3.0 | 0.00 | 0.00 | 0.00 | 86 | 1013.0 |
| 20260509151657 | 84 | 133 | 1.0 | 1.0 | 0.00 | 0.00 | 0.00 | 85 | 1013.0 |
| 20260509151158 | 84 | 358 | 5.0 | 6.0 | 0.00 | 0.00 | 0.00 | 85 | 1013.0 |
| 20260509150658 | 84 | 116 | 3.0 | 5.0 | 0.00 | 0.00 | 0.00 | 85 | 1013.0 |
| 20260509150157 | 84 | 128 | 2.0 | 2.0 | 0.00 | 0.00 | 0.00 | 85 | 1013.0 |
| 20260509145657 | 85 | 28 | 3.0 | 3.0 | 0.00 | 0.00 | 0.00 | 84 | 1013.0 |
| 20260509145157 | 85 | 76 | 1.0 | 2.0 | 0.00 | 0.00 | 0.00 | 84 | 1013.0 |
| 20260509144657 | 85 | 137 | 1.0 | 1.0 | 0.00 | 0.00 | 0.00 | 83 | 1013.0 |
| 20260509144157 | 85 | 334 | 3.0 | 5.0 | 0.00 | 0.00 | 0.00 | 83 | 1012.0 |
| 20260509143657 | 85 | 172 | 1.0 | 1.0 | 0.00 | 0.00 | 0.00 | 83 | 1012.0 |
| 20260509143158 | 85 | 171 | 1.0 | 2.0 | 0.00 | 0.00 | 0.00 | 83 | 1013.0 |
| 20260509142657 | 85 | 177 | 1.0 | 1.0 | 0.00 | 0.00 | 0.00 | 83 | 1012.0 |
| 20260509142157 | 85 | 204 | 2.0 | 2.0 | 0.00 | 0.00 | 0.00 | 83 | 1013.0 |
| 20260509141657 | 85 | 186 | 2.0 | 2.0 | 0.00 | 0.00 | 0.00 | 83 | 1012.0 |
| 20260509141158 | 85 | 193 | 2.0 | 3.0 | 0.00 | 0.00 | 0.00 | 83 | 1012.0 |
| 20260509140657 | 84 | 176 | 1.0 | 1.0 | 0.00 | 0.00 | 0.00 | 84 | 1012.0 |
| 20260509140158 | 84 | 190 | 1.0 | 1.0 | 0.00 | 0.00 | 0.00 | 84 | 1012.0 |
| 20260509135657 | 84 | 166 | 0.0 | 0.0 | 0.00 | 0.00 | 0.00 | 84 | 1012.0 |
| 20260509135157 | 85 | 155 | 0.0 | 0.0 | 0.00 | 0.00 | 0.00 | 84 | 1012.0 |
| 20260509134657 | 85 | 206 | 2.0 | 2.0 | 0.00 | 0.00 | 0.00 | 83 | 1012.0 |
| 20260509134157 | 85 | 153 | 0.0 | 0.0 | 0.00 | 0.00 | 0.00 | 83 | 1012.0 |
| 20260509133657 | 85 | 194 | 0.0 | 0.0 | 0.00 | 0.00 | 0.00 | 83 | 1012.0 |
| 20260509133157 | 85 | 151 | 0.0 | 0.0 | 0.00 | 0.00 | 0.00 | 84 | 1012.0 |
| 20260509132657 | 85 | 161 | 1.0 | 1.0 | 0.00 | 0.00 | 0.00 | 84 | 1012.0 |
| 20260509132157 | 85 | 194 | 1.0 | 1.0 | 0.00 | 0.00 | 0.00 | 83 | 1012.0 |
| 20260509131657 | 85 | 141 | 1.0 | 1.0 | 0.00 | 0.00 | 0.00 | 83 | 1012.0 |
| 20260509131159 | 85 | 148 | 3.0 | 5.0 | 0.00 | 0.00 | 0.00 | 83 | 1012.0 |
| 20260509130657 | 85 | 165 | 0.0 | 0.0 | 0.00 | 0.00 | 0.00 | 83 | 1012.0 |
| 20260509130157 | 85 | 211 | 2.0 | 2.0 | 0.00 | 0.00 | 0.00 | 83 | 1012.0 |
| 20260509125657 | 85 | 225 | 2.0 | 3.0 | 0.00 | 0.00 | 0.00 | 82 | 1012.0 |
| 20260509125157 | 85 | 210 | 1.0 | 2.0 | 0.00 | 0.00 | 0.00 | 82 | 1012.0 |
| 20260509124657 | 85 | 215 | 1.0 | 1.0 | 0.00 | 0.00 | 0.00 | 82 | 1012.0 |
| 20260509124157 | 85 | 168 | 0.0 | 0.0 | 0.00 | 0.00 | 0.00 | 81 | 1012.0 |
| 20260509123657 | 85 | 190 | 1.0 | 1.0 | 0.00 | 0.00 | 0.00 | 81 | 1012.0 |
| 20260509123157 | 85 | 198 | 2.0 | 2.0 | 0.00 | 0.00 | 0.00 | 81 | 1012.0 |
| 20260509122657 | 85 | 175 | 1.0 | 1.0 | 0.00 | 0.00 | 0.00 | 81 | 1012.0 |
| 20260509122157 | 85 | 228 | 1.0 | 2.0 | 0.00 | 0.00 | 0.00 | 80 | 1012.0 |
| 20260509121657 | 85 | 203 | 3.0 | 3.0 | 0.00 | 0.00 | 0.00 | 80 | 1011.0 |
| 20260509121157 | 85 | 170 | 1.0 | 2.0 | 0.00 | 0.00 | 0.00 | 79 | 1011.0 |
| 20260509120657 | 85 | 213 | 2.0 | 2.0 | 0.00 | 0.00 | 0.00 | 79 | 1011.0 |
| 20260509120157 | 85 | 171 | 1.0 | 1.0 | 0.00 | 0.00 | 0.00 | 79 | 1011.0 |
| 20260509115658 | 85 | 192 | 0.0 | 0.0 | 0.00 | 0.00 | 0.00 | 79 | 1011.0 |
| 20260509115157 | 86 | 227 | 3.0 | 3.0 | 0.00 | 0.00 | 0.00 | 78 | 1011.0 |
| 20260509114657 | 86 | 199 | 1.0 | 1.0 | 0.00 | 0.00 | 0.00 | 78 | 1011.0 |
| 20260509114157 | 86 | 172 | 1.0 | 1.0 | 0.00 | 0.00 | 0.00 | 78 | 1011.0 |
| 20260509113657 | 86 | 277 | 3.0 | 5.0 | 0.00 | 0.00 | 0.00 | 78 | 1011.0 |
| 20260509113158 | 86 | 171 | 1.0 | 2.0 | 0.00 | 0.00 | 0.00 | 78 | 1011.0 |
| 20260509112658 | 86 | 274 | 3.0 | 5.0 | 0.00 | 0.00 | 0.00 | 78 | 1011.0 |
| 20260509112157 | 86 | 280 | 3.0 | 3.0 | 0.00 | 0.00 | 0.00 | 78 | 1011.0 |
| 20260509111657 | 86 | 197 | 2.0 | 2.0 | 0.00 | 0.00 | 0.00 | 77 | 1011.0 |
| 20260509111157 | 86 | 192 | 1.0 | 1.0 | 0.00 | 0.00 | 0.00 | 77 | 1010.0 |
| 20260509110658 | 86 | 175 | 1.0 | 2.0 | 0.00 | 0.00 | 0.00 | 77 | 1010.0 |
| 20260509110157 | 86 | 225 | 2.0 | 2.0 | 0.00 | 0.00 | 0.00 | 77 | 1010.0 |
| 20260509105657 | 86 | 269 | 4.0 | 5.0 | 0.00 | 0.00 | 0.00 | 77 | 1010.0 |
| 20260509105157 | 86 | 174 | 1.0 | 1.0 | 0.00 | 0.00 | 0.00 | 77 | 1010.0 |
| 20260509104657 | 86 | 204 | 1.0 | 1.0 | 0.00 | 0.00 | 0.00 | 77 | 1010.0 |
| 20260509104157 | 86 | 214 | 2.0 | 2.0 | 0.00 | 0.00 | 0.00 | 76 | 1010.0 |
| 20260509103657 | 86 | 278 | 5.0 | 7.0 | 0.00 | 0.00 | 0.00 | 76 | 1010.0 |
| 20260509103157 | 86 | 173 | 4.0 | 5.0 | 0.00 | 0.00 | 0.00 | 75 | 1010.0 |
| 20260509102658 | 87 | 191 | 2.0 | 2.0 | 0.00 | 0.00 | 0.00 | 76 | 1010.0 |
| 20260509102157 | 87 | 262 | 4.0 | 5.0 | 0.00 | 0.00 | 0.00 | 75 | 1010.0 |
| 20260509101657 | 87 | 155 | 2.0 | 2.0 | 0.00 | 0.00 | 0.00 | 75 | 1010.0 |
| 20260509101157 | 87 | 274 | 4.0 | 5.0 | 0.00 | 0.00 | 0.00 | 75 | 1010.0 |
| 20260509100658 | 87 | 169 | 3.0 | 5.0 | 0.00 | 0.00 | 0.00 | 74 | 1010.0 |
| 20260509100157 | 87 | 226 | 3.0 | 5.0 | 0.00 | 0.00 | 0.00 | 74 | 1010.0 |
| 20260509095658 | 87 | 242 | 5.0 | 5.0 | 0.00 | 0.00 | 0.00 | 73 | 1010.0 |
| 20260509095157 | 88 | 177 | 0.0 | 0.0 | 0.00 | 0.00 | 0.00 | 73 | 1009.0 |
| 20260509094657 | 88 | 174 | 3.0 | 3.0 | 0.00 | 0.00 | 0.00 | 72 | 1009.0 |
| 20260509094157 | 88 | 223 | 3.0 | 5.0 | 0.00 | 0.00 | 0.00 | 72 | 1009.0 |
| 20260509093658 | 88 | 259 | 4.0 | 5.0 | 0.00 | 0.00 | 0.00 | 72 | 1009.0 |
| 20260509093157 | 88 | 274 | 6.0 | 8.0 | 0.00 | 0.00 | 0.00 | 72 | 1009.0 |
| 20260509092657 | 88 | 213 | 4.0 | 5.0 | 0.00 | 0.00 | 0.00 | 72 | 1009.0 |
| 20260509092157 | 88 | 238 | 6.0 | 8.0 | 0.00 | 0.00 | 0.00 | 72 | 1009.0 |
| 20260509091657 | 88 | 227 | 4.0 | 7.0 | 0.00 | 0.00 | 0.00 | 72 | 1009.0 |
| 20260509091158 | 88 | 228 | 0.0 | 0.0 | 0.00 | 0.00 | 0.00 | 73 | 1009.0 |
| 20260509090657 | 88 | 212 | 4.0 | 6.0 | 0.00 | 0.00 | 0.00 | 73 | 1009.0 |
| 20260509090157 | 88 | 220 | 6.0 | 8.0 | 0.00 | 0.00 | 0.00 | 73 | 1009.0 |
| 20260509085657 | 88 | 225 | 3.0 | 5.0 | 0.00 | 0.00 | 0.00 | 74 | 1009.0 |
| 20260509085159 | 89 | 227 | 8.0 | 9.0 | 0.00 | 0.00 | 0.00 | 73 | 1009.0 |
| 20260509084657 | 89 | 232 | 7.0 | 9.0 | 0.00 | 0.00 | 0.00 | 71 | 1009.0 |
| 20260509084157 | 89 | 267 | 5.0 | 7.0 | 0.00 | 0.00 | 0.00 | 69 | 1009.0 |
| 20260509083658 | 89 | 306 | 6.0 | 7.0 | 0.00 | 0.00 | 0.00 | 69 | 1009.0 |
| 20260509083158 | 90 | 270 | 4.0 | 6.0 | 0.00 | 0.00 | 0.00 | 67 | 1009.0 |
| 20260509082657 | 91 | 264 | 5.0 | 7.0 | 0.00 | 0.00 | 0.00 | 67 | 1009.0 |
| 20260509082157 | 90 | 227 | 6.0 | 8.0 | 0.00 | 0.00 | 0.00 | 69 | 1009.0 |
| 20260509081657 | 91 | 196 | 10.0 | 11.0 | 0.00 | 0.00 | 0.00 | 68 | 1009.0 |
| 20260509081157 | 90 | 188 | 2.0 | 2.0 | 0.00 | 0.00 | 0.00 | 70 | 1009.0 |
| 20260509080657 | 91 | 192 | 4.0 | 6.0 | 0.00 | 0.00 | 0.00 | 70 | 1009.0 |
| 20260509080157 | 91 | 218 | 3.0 | 3.0 | 0.00 | 0.00 | 0.00 | 71 | 1009.0 |
| 20260509075657 | 90 | 240 | 5.0 | 6.0 | 0.00 | 0.00 | 0.00 | 71 | 1009.0 |
| 20260509075157 | 91 | 211 | 7.0 | 8.0 | 0.00 | 0.00 | 0.00 | 70 | 1009.0 |
| 20260509074657 | 91 | 208 | 5.0 | 7.0 | 0.00 | 0.00 | 0.00 | 71 | 1009.0 |
| 20260509074157 | 91 | 237 | 7.0 | 8.0 | 0.00 | 0.00 | 0.00 | 68 | 1008.0 |
| 20260509073657 | 91 | 183 | 4.0 | 6.0 | 0.00 | 0.00 | 0.00 | 68 | 1008.0 |
| 20260509073157 | 92 | 200 | 4.0 | 6.0 | 0.00 | 0.00 | 0.00 | 66 | 1008.0 |
| 20260509072657 | 93 | 250 | 2.0 | 2.0 | 0.00 | 0.00 | 0.00 | 61 | 1008.0 |
| 20260509072157 | 93 | 176 | 2.0 | 2.0 | 0.00 | 0.00 | 0.00 | 60 | 1008.0 |
| 20260509071657 | 92 | 194 | 0.0 | 0.0 | 0.00 | 0.00 | 0.00 | 61 | 1008.0 |
| 20260509071157 | 92 | 139 | 2.0 | 2.0 | 0.00 | 0.00 | 0.00 | 61 | 1008.0 |
| 20260509070658 | 93 | 164 | 1.0 | 1.0 | 0.00 | 0.00 | 0.00 | 61 | 1009.0 |
| 20260509070158 | 93 | 264 | 4.0 | 5.0 | 0.00 | 0.00 | 0.00 | 60 | 1008.0 |
| 20260509065657 | 94 | 282 | 5.0 | 6.0 | 0.00 | 0.00 | 0.00 | 59 | 1008.0 |
| 20260509065157 | 95 | 153 | 2.0 | 2.0 | 0.00 | 0.00 | 0.00 | 57 | 1008.0 |
| 20260509064657 | 94 | 167 | 0.0 | 0.0 | 0.00 | 0.00 | 0.00 | 59 | 1008.0 |
| 20260509064157 | 93 | 172 | 1.0 | 1.0 | 0.00 | 0.00 | 0.00 | 60 | 1008.0 |
| 20260509063657 | 93 | 210 | 5.0 | 6.0 | 0.00 | 0.00 | 0.00 | 60 | 1009.0 |
| 20260509063157 | 92 | 276 | 3.0 | 5.0 | 0.00 | 0.00 | 0.00 | 62 | 1009.0 |
| 20260509062657 | 92 | 305 | 5.0 | 6.0 | 0.00 | 0.00 | 0.00 | 62 | 1009.0 |
| 20260509062157 | 92 | 180 | 0.0 | 0.0 | 0.00 | 0.00 | 0.00 | 62 | 1009.0 |
| 20260509061657 | 91 | 174 | 2.0 | 3.0 | 0.00 | 0.00 | 0.00 | 62 | 1009.0 |
| 20260509061157 | 92 | 228 | 3.0 | 5.0 | 0.00 | 0.00 | 0.00 | 62 | 1009.0 |
| 20260509060702 | 91 | 190 | 2.0 | 3.0 | 0.00 | 0.00 | 0.00 | 62 | 1009.0 |
| 20260509060157 | 91 | 251 | 3.0 | 3.0 | 0.00 | 0.00 | 0.00 | 62 | 1009.0 |
| 20260509055657 | 92 | 321 | 5.0 | 6.0 | 0.00 | 0.00 | 0.00 | 62 | 1009.0 |
| 20260509055157 | 93 | 286 | 8.0 | 9.0 | 0.00 | 0.00 | 0.00 | 61 | 1009.0 |
| 20260509054658 | 94 | 179 | 3.0 | 3.0 | 0.00 | 0.00 | 0.00 | 59 | 1009.0 |
| 20260509054157 | 93 | 280 | 3.0 | 5.0 | 0.00 | 0.00 | 0.00 | 59 | 1009.0 |
| 20260509053657 | 93 | 249 | 4.0 | 5.0 | 0.00 | 0.00 | 0.00 | 59 | 1009.0 |
| 20260509053157 | 94 | 299 | 6.0 | 9.0 | 0.00 | 0.00 | 0.00 | 60 | 1009.0 |
| 20260509052657 | 93 | 141 | 1.0 | 1.0 | 0.00 | 0.00 | 0.00 | 59 | 1009.0 |
| 20260509052157 | 92 | 285 | 7.0 | 7.0 | 0.00 | 0.00 | 0.00 | 59 | 1009.0 |
| 20260509051657 | 92 | 207 | 4.0 | 5.0 | 0.00 | 0.00 | 0.00 | 60 | 1009.0 |
| 20260509051157 | 92 | 265 | 3.0 | 3.0 | 0.00 | 0.00 | 0.00 | 61 | 1010.0 |
| 20260509050657 | 91 | 358 | 4.0 | 6.0 | 0.00 | 0.00 | 0.00 | 62 | 1010.0 |
| 20260509050157 | 91 | 274 | 6.0 | 9.0 | 0.00 | 0.00 | 0.00 | 63 | 1010.0 |
| 20260509045657 | 91 | 313 | 6.0 | 8.0 | 0.00 | 0.00 | 0.00 | 63 | 1010.0 |
| 20260509045157 | 91 | 7 | 4.0 | 5.0 | 0.00 | 0.00 | 0.00 | 63 | 1010.0 |
| 20260509044658 | 92 | 21 | 4.0 | 6.0 | 0.00 | 0.00 | 0.00 | 63 | 1010.0 |
| 20260509044157 | 93 | 206 | 2.0 | 2.0 | 0.00 | 0.00 | 0.00 | 61 | 1010.0 |
| 20260509043657 | 93 | 306 | 5.0 | 5.0 | 0.00 | 0.00 | 0.00 | 62 | 1010.0 |
| 20260509043157 | 92 | 185 | 3.0 | 3.0 | 0.00 | 0.00 | 0.00 | 63 | 1010.0 |
| 20260509042657 | 91 | 237 | 3.0 | 3.0 | 0.00 | 0.00 | 0.00 | 63 | 1010.0 |
| 20260509042157 | 91 | 333 | 7.0 | 7.0 | 0.00 | 0.00 | 0.00 | 63 | 1010.0 |
| 20260509041657 | 92 | 25 | 5.0 | 6.0 | 0.00 | 0.00 | 0.00 | 64 | 1010.0 |
| 20260509041157 | 92 | 49 | 3.0 | 6.0 | 0.00 | 0.00 | 0.00 | 64 | 1010.0 |
| 20260509040657 | 91 | 331 | 2.0 | 2.0 | 0.00 | 0.00 | 0.00 | 65 | 1010.0 |
| 20260509040157 | 90 | 349 | 7.0 | 7.0 | 0.00 | 0.00 | 0.00 | 66 | 1011.0 |
| 20260509035657 | 90 | 122 | 1.0 | 2.0 | 0.00 | 0.00 | 0.00 | 68 | 1011.0 |
| 20260509035158 | 91 | 71 | 4.0 | 5.0 | 0.00 | 0.00 | 0.00 | 68 | 1011.0 |
| 20260509034657 | 91 | 241 | 4.0 | 5.0 | 0.00 | 0.00 | 0.00 | 66 | 1011.0 |
| 20260509034157 | 90 | 168 | 3.0 | 3.0 | 0.00 | 0.00 | 0.00 | 67 | 1011.0 |
| 20260509033657 | 89 | 35 | 4.0 | 6.0 | 0.00 | 0.00 | 0.00 | 68 | 1011.0 |
| 20260509033157 | 90 | 48 | 3.0 | 3.0 | 0.00 | 0.00 | 0.00 | 69 | 1011.0 |
| 20260509032657 | 91 | 24 | 4.0 | 6.0 | 0.00 | 0.00 | 0.00 | 67 | 1011.0 |
| 20260509032158 | 90 | 268 | 4.0 | 5.0 | 0.00 | 0.00 | 0.00 | 69 | 1011.0 |
| 20260509031657 | 90 | 72 | 3.0 | 5.0 | 0.00 | 0.00 | 0.00 | 69 | 1011.0 |
| 20260509031157 | 89 | 187 | 2.0 | 2.0 | 0.00 | 0.00 | 0.00 | 70 | 1012.0 |
| 20260509030658 | 89 | 350 | 4.0 | 6.0 | 0.00 | 0.00 | 0.00 | 71 | 1012.0 |
| 20260509030158 | 89 | 304 | 3.0 | 5.0 | 0.00 | 0.00 | 0.00 | 71 | 1012.0 |
| 20260509025657 | 89 | 148 | 2.0 | 3.0 | 0.00 | 0.00 | 0.00 | 72 | 1012.0 |
| 20260509025157 | 89 | 78 | 4.0 | 5.0 | 0.00 | 0.00 | 0.00 | 72 | 1012.0 |
| 20260509024659 | 89 | 145 | 1.0 | 2.0 | 0.00 | 0.00 | 0.00 | 71 | 1012.0 |
| 20260509024157 | 88 | 175 | 1.0 | 1.0 | 0.00 | 0.00 | 0.00 | 72 | 1012.0 |
| 20260509023658 | 88 | 269 | 3.0 | 3.0 | 0.00 | 0.00 | 0.00 | 72 | 1012.0 |
| 20260509023157 | 88 | 54 | 3.0 | 3.0 | 0.00 | 0.00 | 0.00 | 73 | 1012.0 |
| 20260509022657 | 89 | 214 | 2.0 | 3.0 | 0.00 | 0.00 | 0.00 | 73 | 1012.0 |
| 20260509022157 | 87 | 146 | 1.0 | 1.0 | 0.00 | 0.00 | 0.00 | 74 | 1012.0 |
| 20260509021657 | 87 | 358 | 3.0 | 3.0 | 0.00 | 0.00 | 0.00 | 74 | 1013.0 |
| 20260509021157 | 87 | 0 | 5.0 | 5.0 | 0.00 | 0.00 | 0.00 | 75 | 1012.0 |
| 20260509020657 | 87 | 347 | 4.0 | 5.0 | 0.00 | 0.00 | 0.00 | 77 | 1013.0 |
| 20260509020157 | 87 | 252 | 3.0 | 3.0 | 0.00 | 0.00 | 0.00 | 77 | 1013.0 |
| 20260509015657 | 86 | 153 | 1.0 | 1.0 | 0.00 | 0.00 | 0.00 | 78 | 1013.0 |
| 20260509015158 | 85 | 165 | 1.0 | 1.0 | 0.00 | 0.00 | 0.00 | 79 | 1013.0 |
| 20260509014657 | 85 | 152 | 1.0 | 1.0 | 0.00 | 0.00 | 0.00 | 80 | 1013.0 |
| 20260509014157 | 85 | 134 | 1.0 | 1.0 | 0.00 | 0.00 | 0.00 | 81 | 1013.0 |
| 20260509013657 | 84 | 36 | 3.0 | 3.0 | 0.00 | 0.00 | 0.00 | 82 | 1013.0 |
| 20260509013157 | 84 | 91 | 1.0 | 2.0 | 0.00 | 0.00 | 0.00 | 82 | 1013.0 |
| 20260509012657 | 84 | 148 | 1.0 | 1.0 | 0.00 | 0.00 | 0.00 | 82 | 1013.0 |
| 20260509012157 | 83 | 103 | 1.0 | 1.0 | 0.00 | 0.00 | 0.00 | 83 | 1013.0 |
| 20260509011658 | 83 | 137 | 2.0 | 2.0 | 0.00 | 0.00 | 0.00 | 83 | 1013.0 |
| 20260509011157 | 83 | 138 | 2.0 | 2.0 | 0.00 | 0.00 | 0.00 | 83 | 1013.0 |
| 20260509010657 | 82 | 131 | 4.0 | 5.0 | 0.00 | 0.00 | 0.00 | 84 | 1013.0 |
| 20260509010157 | 83 | 136 | 2.0 | 2.0 | 0.00 | 0.00 | 0.00 | 84 | 1013.0 |
| 20260509005657 | 82 | 146 | 1.0 | 2.0 | 0.00 | 0.00 | 0.00 | 85 | 1013.0 |
| 20260509005157 | 82 | 137 | 3.0 | 3.0 | 0.00 | 0.00 | 0.00 | 85 | 1013.0 |
| 20260509004657 | 82 | 160 | 2.0 | 2.0 | 0.00 | 0.00 | 0.00 | 85 | 1013.0 |
| 20260509004159 | 82 | 166 | 0.0 | 0.0 | 0.00 | 0.00 | 0.00 | 86 | 1013.0 |
| 20260509003700 | 82 | 144 | 2.0 | 2.0 | 0.00 | 0.00 | 0.00 | 85 | 1013.0 |
| 20260509003157 | 81 | 175 | 0.0 | 0.0 | 0.00 | 0.00 | 0.00 | 87 | 1013.0 |
| 20260509002659 | 80 | 142 | 1.0 | 2.0 | 0.00 | 0.00 | 0.00 | 88 | 1013.0 |
| 20260509002157 | 80 | 142 | 2.0 | 2.0 | 0.00 | 0.00 | 0.00 | 88 | 1013.0 |
| 20260509001657 | 80 | 154 | 2.0 | 2.0 | 0.00 | 0.00 | 0.00 | 88 | 1012.0 |
| 20260509001157 | 80 | 157 | 1.0 | 1.0 | 0.00 | 0.00 | 0.00 | 88 | 1012.0 |
| 20260509000659 | 80 | 130 | 1.0 | 1.0 | 0.00 | 0.00 | 0.00 | 88 | 1012.0 |
| 20260509000157 | 80 | 149 | 1.0 | 1.0 | 0.00 | 0.00 | 0.00 | 88 | 1012.0 |
| 20260508235657 | 80 | 116 | 3.0 | 3.0 | 0.00 | 0.00 | 0.00 | 88 | 1012.0 |
| 20260508235157 | 80 | 125 | 1.0 | 1.0 | 0.00 | 0.00 | 0.00 | 89 | 1012.0 |
| 20260508234657 | 80 | 143 | 2.0 | 2.0 | 0.00 | 0.00 | 0.00 | 88 | 1012.0 |
| 20260508234157 | 80 | 134 | 1.0 | 2.0 | 0.00 | 0.00 | 0.00 | 88 | 1012.0 |
| 20260508233657 | 80 | 131 | 3.0 | 3.0 | 0.00 | 0.00 | 0.00 | 89 | 1012.0 |
| 20260508233201 | 79 | 153 | 0.0 | 0.0 | 0.00 | 0.00 | 0.00 | 90 | 1012.0 |
| 20260508232657 | 79 | 132 | 2.0 | 2.0 | 0.00 | 0.00 | 0.00 | 89 | 1012.0 |
| 20260508232157 | 79 | 145 | 1.0 | 2.0 | 0.00 | 0.00 | 0.00 | 90 | 1012.0 |
| 20260508231657 | 79 | 155 | 0.0 | 0.0 | 0.00 | 0.00 | 0.00 | 90 | 1012.0 |
| 20260508231157 | 79 | 165 | 0.0 | 0.0 | 0.00 | 0.00 | 0.00 | 90 | 1012.0 |
| 20260508230657 | 79 | 162 | 0.0 | 0.0 | 0.00 | 0.00 | 0.00 | 91 | 1012.0 |
| 20260508230157 | 79 | 136 | 0.0 | 0.0 | 0.00 | 0.00 | 0.00 | 91 | 1012.0 |
| 20260508225657 | 79 | 152 | 0.0 | 0.0 | 0.00 | 0.00 | 0.00 | 91 | 1012.0 |
| 20260508225157 | 79 | 157 | 0.0 | 0.0 | 0.00 | 0.00 | 0.00 | 92 | 1012.0 |
| 20260508224657 | 78 | 162 | 0.0 | 0.0 | 0.00 | 0.00 | 0.00 | 92 | 1012.0 |
| 20260508224157 | 78 | 161 | 0.0 | 0.0 | 0.00 | 0.00 | 0.00 | 92 | 1012.0 |
| 20260508223657 | 78 | 148 | 2.0 | 2.0 | 0.00 | 0.00 | 0.00 | 92 | 1012.0 |
| 20260508223157 | 78 | 133 | 3.0 | 3.0 | 0.00 | 0.00 | 0.00 | 92 | 1012.0 |
| 20260508222658 | 78 | 143 | 2.0 | 2.0 | 0.00 | 0.00 | 0.00 | 92 | 1011.0 |
| 20260508222157 | 78 | 132 | 2.0 | 2.0 | 0.00 | 0.00 | 0.00 | 92 | 1011.0 |
| 20260508221659 | 78 | 155 | 1.0 | 1.0 | 0.00 | 0.00 | 0.00 | 92 | 1012.0 |
| 20260508221157 | 78 | 158 | 0.0 | 0.0 | 0.00 | 0.00 | 0.00 | 92 | 1011.0 |
| 20260508220657 | 78 | 150 | 0.0 | 0.0 | 0.00 | 0.00 | 0.00 | 92 | 1011.0 |
| 20260508220157 | 78 | 150 | 1.0 | 2.0 | 0.00 | 0.00 | 0.00 | 92 | 1011.0 |
| 20260508215657 | 78 | 156 | 0.0 | 0.0 | 0.00 | 0.00 | 0.00 | 92 | 1011.0 |
| 20260508215157 | 78 | 158 | 0.0 | 0.0 | 0.00 | 0.00 | 0.00 | 92 | 1011.0 |
| 20260508214658 | 78 | 135 | 0.0 | 0.0 | 0.00 | 0.00 | 0.00 | 92 | 1011.0 |
| 20260508214157 | 78 | 156 | 1.0 | 1.0 | 0.00 | 0.00 | 0.00 | 92 | 1011.0 |
| 20260508213658 | 79 | 149 | 2.0 | 2.0 | 0.00 | 0.00 | 0.00 | 92 | 1011.0 |
| 20260508213158 | 79 | 146 | 1.0 | 1.0 | 0.00 | 0.00 | 0.00 | 92 | 1011.0 |
| 20260508212657 | 79 | 155 | 1.0 | 1.0 | 0.00 | 0.00 | 0.00 | 92 | 1011.0 |
| 20260508212157 | 79 | 150 | 2.0 | 2.0 | 0.00 | 0.00 | 0.00 | 92 | 1011.0 |
| 20260508211659 | 79 | 128 | 3.0 | 3.0 | 0.00 | 0.00 | 0.00 | 92 | 1011.0 |
| 20260508211158 | 79 | 144 | 3.0 | 5.0 | 0.00 | 0.00 | 0.00 | 92 | 1011.0 |
| 20260508210657 | 79 | 125 | 2.0 | 2.0 | 0.00 | 0.00 | 0.00 | 93 | 1011.0 |
| 20260508210157 | 79 | 144 | 1.0 | 1.0 | 0.00 | 0.00 | 0.00 | 93 | 1011.0 |
| 20260508205657 | 79 | 136 | 2.0 | 2.0 | 0.00 | 0.00 | 0.00 | 93 | 1011.0 |
| 20260508205157 | 79 | 139 | 1.0 | 2.0 | 0.00 | 0.00 | 0.00 | 93 | 1011.0 |
| 20260508204657 | 79 | 137 | 2.0 | 3.0 | 0.00 | 0.00 | 0.00 | 93 | 1011.0 |
| 20260508204157 | 79 | 147 | 3.0 | 5.0 | 0.00 | 0.00 | 0.00 | 93 | 1011.0 |
| 20260508203657 | 80 | 122 | 1.0 | 1.0 | 0.00 | 0.00 | 0.00 | 93 | 1011.0 |
| 20260508203157 | 80 | 150 | 1.0 | 1.0 | 0.00 | 0.00 | 0.00 | 93 | 1011.0 |
| 20260508202657 | 80 | 100 | 2.0 | 3.0 | 0.00 | 0.00 | 0.00 | 93 | 1011.0 |
| 20260508202158 | 80 | 136 | 3.0 | 3.0 | 0.00 | 0.00 | 0.00 | 92 | 1011.0 |
| 20260508201657 | 80 | 150 | 1.0 | 1.0 | 0.00 | 0.00 | 0.00 | 93 | 1011.0 |
| 20260508201157 | 80 | 127 | 2.0 | 2.0 | 0.00 | 0.00 | 0.00 | 93 | 1011.0 |
| 20260508200657 | 80 | 139 | 2.0 | 2.0 | 0.00 | 0.00 | 0.00 | 92 | 1011.0 |
| 20260508200157 | 80 | 139 | 3.0 | 3.0 | 0.00 | 0.00 | 0.00 | 92 | 1011.0 |
| 20260508195657 | 80 | 147 | 3.0 | 3.0 | 0.00 | 0.00 | 0.00 | 92 | 1011.0 |
| 20260508195157 | 80 | 148 | 3.0 | 3.0 | 0.00 | 0.00 | 0.00 | 91 | 1011.0 |
| 20260508194657 | 80 | 137 | 3.0 | 3.0 | 0.00 | 0.00 | 0.00 | 91 | 1010.0 |
| 20260508194157 | 80 | 142 | 1.0 | 1.0 | 0.00 | 0.00 | 0.00 | 91 | 1010.0 |
| 20260508193657 | 80 | 133 | 2.0 | 2.0 | 0.00 | 0.00 | 0.00 | 91 | 1011.0 |
| 20260508193157 | 81 | 159 | 0.0 | 1.0 | 0.00 | 0.00 | 0.00 | 91 | 1011.0 |
| 20260508192658 | 81 | 148 | 3.0 | 3.0 | 0.00 | 0.00 | 0.00 | 91 | 1011.0 |
| 20260508192200 | 81 | 134 | 3.0 | 3.0 | 0.00 | 0.00 | 0.00 | 90 | 1011.0 |
| 20260508191657 | 81 | 122 | 3.0 | 3.0 | 0.00 | 0.00 | 0.00 | 90 | 1011.0 |
| 20260508191200 | 81 | 141 | 2.0 | 2.0 | 0.00 | 0.00 | 0.00 | 90 | 1011.0 |
| 20260508190657 | 81 | 128 | 2.0 | 2.0 | 0.00 | 0.00 | 0.00 | 89 | 1011.0 |
| 20260508190157 | 81 | 138 | 3.0 | 3.0 | 0.00 | 0.00 | 0.00 | 89 | 1011.0 |
| 20260508185657 | 82 | 135 | 1.0 | 1.0 | 0.00 | 0.00 | 0.00 | 88 | 1011.0 |
| 20260508185159 | 82 | 163 | 0.0 | 0.0 | 0.00 | 0.00 | 0.00 | 87 | 1011.0 |
| 20260508184658 | 82 | 145 | 2.0 | 2.0 | 0.00 | 0.00 | 0.00 | 87 | 1011.0 |
| 20260508184158 | 82 | 126 | 2.0 | 2.0 | 0.00 | 0.00 | 0.00 | 87 | 1011.0 |
| 20260508183658 | 82 | 151 | 2.0 | 2.0 | 0.00 | 0.00 | 0.00 | 86 | 1011.0 |
| 20260508183158 | 82 | 147 | 2.0 | 2.0 | 0.00 | 0.00 | 0.00 | 86 | 1011.0 |
| 20260508182657 | 82 | 149 | 2.0 | 2.0 | 0.00 | 0.00 | 0.00 | 86 | 1011.0 |
| 20260508182158 | 82 | 156 | 1.0 | 2.0 | 0.00 | 0.00 | 0.00 | 86 | 1011.0 |
| 20260508181657 | 82 | 144 | 1.0 | 2.0 | 0.00 | 0.00 | 0.00 | 86 | 1011.0 |
| 20260508181158 | 82 | 125 | 3.0 | 3.0 | 0.00 | 0.00 | 0.00 | 86 | 1011.0 |
| 20260508180657 | 82 | 147 | 1.0 | 2.0 | 0.00 | 0.00 | 0.00 | 86 | 1011.0 |
| 20260508180158 | 82 | 146 | 1.0 | 1.0 | 0.00 | 0.00 | 0.00 | 86 | 1011.0 |
| 20260508175658 | 82 | 161 | 0.0 | 0.0 | 0.00 | 0.00 | 0.00 | 86 | 1011.0 |
| 20260508175159 | 82 | 147 | 0.0 | 0.0 | 0.00 | 0.00 | 0.00 | 86 | 1011.0 |
| 20260508174657 | 82 | 153 | 0.0 | 0.0 | 0.00 | 0.00 | 0.00 | 86 | 1011.0 |
| 20260508174159 | 82 | 141 | 0.0 | 0.0 | 0.00 | 0.00 | 0.00 | 85 | 1011.0 |